Tracking 22879 objects as of 21-Apr-2021
HD Live streaming from Space Station
objects crossing your sky now

COSMOS 1361

Track COSMOS 1361 now!
10-day predictions
COSMOS 1361 is classified as:


NORAD ID: 13164
Int'l Code: 1982-040E
Perigee: 1,468.4 km
Apogee: 1,490.1 km
Inclination: 74.0 °
Period: 115.4 minutes
Semi major axis: 7850 km
RCS: 0.6957 m2 (medium)
Launch date: May 6, 1982
Source: Commonwealth of Independent States (former USSR) (CIS)
Launch site: PLESETSK MISSILE AND SPACE COMPLEX (PKMTR)
aabbcc
Your satellite tracking list
Your tracking list is empty




NASA's NSSDC Master Catalog

Two Line Element Set (TLE):
1 13164U 82040E   21110.74664479 -.00000017  00000-0 -92213-5 0  9993
2 13164  74.0151   2.6089 0013821 112.5152 304.1612 12.48173205775102
Source of the keplerian elements: AFSPC